Home > Weather > Butare > Past weeks

Flag for Rwanda Past Weather in Butare, Rwanda — Yesterday and Last 2 Weeks

Now
66 °F

Passing clouds.


Feels Like: 66 °F
Forecast: 50 / 78 °F
Wind: 3 mph from South

Location: Kigali Airport

Current Time: Aug 29, 2016 at 4:09:55 AM

Latest Report: Aug 29, 2016 at 2:30 AM


Visibility: N/A

Pressure: 30.15 "Hg (24.57 "Hg at 1750m altitude)

Humidity: 46%

Dew Point: 45 °F

Location of ButareLocation

Past Weather in Butare — Graph

°F

Butare Temperature Yesterday

Maximum temperature yesterday: 82 °F (at 2:30 PM)
Minimum temperature yesterday: 64 °F (at 7:00 AM)
Average temperature yesterday: 75 °F

High & Low Weather Summary for the Past Weeks

 TemperatureHumidityPressure
High86 °F (Aug 14, 2:00 PM)88% (Aug 16, 12:30 AM)30.30 "Hg (Aug 16, 12:30 AM)
Low61 °F (Aug 18, 6:30 AM)22% (Aug 19, 4:00 PM)30.04 "Hg (Aug 14, 3:30 PM)
Average75 °F44%30.14 "Hg
* Reported Aug 14 2:00 AM — Aug 29 2:30 AM, Butare, Weather by CustomWeather, © 2016

Note: Actual official high and low records may vary slightly from our data, if they occured in-between our weather recording intervals... More about our weather records

Advertising

Butare Weather History for the Previous 24 Hours

Scroll right to see more
 ConditionsComfort  
Time TempWeatherWind HumidityBarometerVisibility
2:30 AM
Mon, Aug 29
66 °FPassing clouds.3 mph46%30.15 "HgN/A
2:00 AM66 °FClear.1 mph49%30.15 "Hg10 mi
12:30 AM68 °FClear.3 mph49%30.15 "Hg10 mi
11:30 PM
Sun, Aug 28
70 °FClear.3 mph46%30.18 "Hg10 mi
11:00 PM72 °FClear.3 mph41%30.21 "Hg10 mi
7:00 PM75 °FPassing clouds.8 mph36%30.12 "HgN/A
6:00 PM77 °FScattered clouds.8 mph34%30.12 "HgN/A
5:30 PM79 °FPassing clouds.9 mph32%30.12 "HgN/A
5:00 PM79 °FPassing clouds.10 mph32%30.12 "HgN/A
4:30 PM81 °FScattered clouds.10 mph30%30.12 "HgN/A
4:00 PM81 °FScattered clouds.12 mph30%30.12 "HgN/A
3:00 PM82 °FScattered clouds.9 mph30%30.12 "HgN/A
2:30 PM82 °FScattered clouds.13 mph30%30.12 "HgN/A
1:30 PM79 °FScattered clouds.10 mph32%30.15 "HgN/A
12:30 PM79 °FPassing clouds.10 mph34%30.21 "HgN/A
11:30 AM75 °FPassing clouds.9 mph39%30.24 "HgN/A
11:00 AM77 °FPassing clouds.10 mph36%30.24 "HgN/A
9:00 AM72 °FPassing clouds.10 mph41%30.30 "HgN/A
7:30 AM68 °FPassing clouds.3 mph49%30.27 "HgN/A
7:00 AM64 °FPassing clouds.3 mph56%30.24 "HgN/A
Weather by CustomWeather, © 2016

See weather overviewHow to use our weather pages